Location: Roanoke
(37.2710°N, 79.9420°W)
Time: 04:20:00
(UTC-05:00)

Courier 1B - Visible Passes

Search period start: 20 November 2019 00:00
Search period end: 30 November 2019 00:00
Orbit: 963 x 1209 km, 28.3° (Epoch: 19 November)

Date Brightness Start Highest point End Pass type
(mag) Time Alt. Az. Time Alt. Az. Time Alt. Az.
20 Nov 9.8 03:49:38 14° SSE 03:50:24 14° SSE 03:53:57 10° ESE visible
20 Nov 9.1 05:37:45 10° SW 05:43:43 30° SSE 05:49:26 10° ESE visible
21 Nov 9.2 04:46:33 18° SSW 04:50:06 27° SSE 04:55:38 10° ESE visible
21 Nov 8.8 06:37:13 10° WSW 06:43:34 38° S 06:49:37 10° ESE visible
22 Nov 9.3 03:56:29 23° SSE 03:56:29 23° SSE 04:01:41 10° ESE visible
22 Nov 8.8 05:43:29 10° WSW 05:49:54 37° S 05:56:00 10° ESE visible
23 Nov 10.1 03:06:20 13° ESE 03:06:20 13° ESE 03:07:32 10° ESE visible
23 Nov 8.8 04:53:15 25° SSW 04:56:15 34° S 05:02:20 10° ESE visible
24 Nov 9.0 04:03:02 31° SSE 04:03:02 31° SSE 04:08:35 10° ESE visible
24 Nov 8.6 05:49:56 12° WSW 05:56:08 40° S 06:02:23 10° ESE visible
25 Nov 9.9 03:12:46 17° ESE 03:12:46 17° ESE 03:14:44 10° ESE visible
25 Nov 8.6 04:59:40 29° SW 05:02:26 40° S 05:08:49 10° ESE visible
26 Nov 8.7 04:09:21 37° SSE 04:09:21 37° SSE 04:15:10 10° ESE visible
26 Nov 8.6 05:56:15 12° WSW 06:02:20 39° S 06:08:37 10° ESE visible
27 Nov 9.7 03:19:01 21° ESE 03:19:01 21° ESE 03:21:26 10° ESE visible
27 Nov 8.5 05:05:54 30° SW 05:08:38 41° S 05:15:07 10° ESE visible
28 Nov 8.5 04:15:32 41° SSE 04:15:32 41° SSE 04:21:32 10° ESE visible
28 Nov 8.8 06:02:26 11° WSW 06:08:29 34° SSW 06:14:36 10° SE visible
29 Nov 9.6 03:25:10 23° ESE 03:25:10 23° ESE 03:27:53 10° ESE visible
29 Nov 8.6 05:12:03 29° SW 05:14:48 38° S 05:21:14 10° SE visible
